RH
88 87 88 88 87 86 84 84 85 85 83 79 73 69 67 66 70 70 70 72 74 76 77 76 76 75 46 16 13 24 51 41 25 23 25 26 27 25 27 24 23 23 19 22 21 19 17
89 89 88 89 88 87 85 84 86 86 84 81 75 71 68 68 70 69 70 73 75 77 78 77 75 72 37 13 19 35 42 28 25 21 20 22 23 22 25 28 27 24 22 22 22 21 22
92 90 90 90 89 87 86 86 86 87 84 80 76 72 69 69 69 69 72 74 77 79 79 77 74 62 43 16 31 40 45 28 27 21 20 19 22 22 24 27 23 24 28 23 21 19 21
95 93 90 92 91 88 88 87 87 87 85 80 75 74 70 70 69 72 75 76 80 78 76 77 75 64 26 28 39 43 32 20 21 23 22 20 21 23 25 24 25 28 28 30 23 20 21
88 94 91 93 92 90 89 88 88 87 85 82 76 74 71 71 71 74 76 79 81 78 79 78 71 59 24 34 26 24 22 22 22 23 22 17 20 26 26 31 32 36 33 31 26 22 24
79 85 92 92 93 94 91 90 88 88 87 84 78 73 70 69 71 79 83 74 81 79 75 63 63 44 24 20 24 22 21 22 26 27 25 26 31 29 32 31 36 34 34 31 33 23 26
76 78 85 89 95 93 91 90 89 90 88 84 79 72 69 67 71 77 73 35 26 28 45 24 28 37 26 24 26 23 23 26 29 30 35 36 36 39 36 36 34 37 41 40 33 29 37
79 78 78 84 86 92 91 90 89 90 88 85 79 73 68 66 69 76 58 40 35 38 41 46 44 41 36 31 31 27 24 37 37 48 40 49 54 39 40 40 43 42 48 47 39 33 33
80 81 78 76 81 85 92 90 90 90 89 87 81 73 67 68 73 63 56 50 44 46 50 40 41 36 29 31 34 30 31 38 46 50 48 58 47 40 42 45 48 46 50 46 46 36 37
82 84 82 79 78 82 86 95 93 92 89 87 83 76 74 73 63 63 57 54 51 54 36 28 32 28 30 31 36 26 30 39 48 55 54 60 48 46 48 56 50 64 41 42 45 54 60
84 83 81 81 80 79 84 89 92 91 88 86 81 73 74 70 65 59 48 65 60 54 11 27 28 22 30 36 38 36 35 42 57 60 63 50 58 59 63 58 45 40 42 46 50 59 64
83 81 80 73 77 81 82 87 95 92 87 85 81 73 76 82 76 57 64 67 60 32 18 34 31 36 40 40 43 44 47 44 47 65 62 60 50 54 58 53 48 43 54 52 55 66 80
81 83 82 79 70 75 81 84 93 91 87 87 82 74 79 72 68 66 72 67 31 26 27 35 38 43 44 52 54 57 62 78 75 71 65 60 57 54 54 56 48 56 55 70 68 74 64
80 83 82 82 77 75 84 83 94 90 88 84 84 79 78 69 69 77 70 54 29 29 33 36 45 47 52 62 58 64 62 67 72 75 75 81 59 50 48 51 56 50 51 71 91 70 73
81 83 82 80 79 76 78 80 94 91 88 88 86 98 97 83 76 74 64 61 26 36 35 47 51 55 61 57 69 69 64 65 63 62 73 86 84 52 49 52 48 57 64 51 95 77 90
79 83 80 76 78 78 77 78 92 90 86 83 93 90 84 81 83 71 72 49 41 34 44 48 52 62 78 65 68 69 65 55 56 56 52 68 98 54 54 50 53 54 53 95 91 92 82
81 83 81 74 72 79 77 79 92 88 84 76 91 96 93 82 82 81 90 57 42 40 43 54 71 72 68 82 85 85 68 56 54 55 48 57 96 61 60 58 55 58 73 96 97 82 92
82 78 76 75 80 79 77 81 91 87 82 81 99 99 95 80 98 94 81 48 51 49 47 54 62 65 75 89 80 96 83 68 51 56 62 64 97 84 60 45 60 62 69 84 92 84 90
81 84 84 81 83 78 78 90 88 85 74 94 99 100 88 83 97 91 64 54 50 49 50 57 65 66 75 88 79 88 87 66 62 50 72 83 88 85 55 62 51 70 69 82 92 97 99
91 94 94 92 86 78 89 89 86 78 72 85 96 99 99 97 86 71 67 59 59 47 50 52 62 69 73 78 76 81 85 64 59 50 64 73 89 95 86 94 95 89 87 94 98 96 92
97 96 91 86 81 87 89 87 82 72 73 92 98 94 75 95 96 76 71 72 64 64 47 45 56 51 54 75 69 84 80 66 52 58 64 84 98 99 99 98 84 93 96 88 87 80 78
95 92 88 85 90 88 87 82 76 82 85 97 99 82 80 68 74 69 74 71 58 48 47 49 56 50 53 56 57 60 56 59 61 58 64 86 96 100 97 100 96 94 96 79 90 87 92
92 91 90 90 88 87 84 80 80 86 81 98 91 73 74 75 74 70 80 67 58 54 58 42 50 54 57 54 55 52 53 55 49 54 70 93 95 94 87 95 83 89 97 96 87 86 81
93 90 89 87 84 84 81 80 84 90 84 85 79 84 91 87 63 58 62 57 53 48 62 56 56 54 51 61 63 66 72 70 69 65 58 94 88 92 86 97 93 98 90 88 81 87 87
88 91 90 91 90 89 87 88 90 87 80 88 92 81 89 78 56 64 59 62 61 61 63 61 54 53 68 66 69 72 71 72 80 72 70 78 94 91 96 88 96 94 90 89 87 91 88
90 88 87 88 89 89 87 87 86 82 76 88 97 88 81 76 72 50 60 56 62 61 58 66 63 70 68 70 77 83 86 73 78 91 78 84 81 92 93 91 93 91 91 86 79 80 83
91 91 90 88 85 83 83 86 88 80 75 86 97 93 80 95 77 62 65 63 63 58 62 65 74 72 66 78 81 79 80 72 86 80 87 74 80 87 90 89 88 84 94 96 89 90 83
89 88 86 86 86 84 87 88 84 78 76 81 97 92 78 91 86 78 70 74 68 58 63 69 72 79 79 79 67 78 82 78 89 86 86 76 87 86 88 91 92 90 96 82 91 92 81
81 81 86 88 88 87 86 84 81 78 74 72 92 90 90 91 86 83 77 72 53 50 79 82 76 86 75 81 80 81 85 85 86 94 77 86 79 84 90 90 95 98 95 97 90 86 85
Wind_Speed
23 22 21 20 19 18 17 16 14 12 11 8 7 5 5 6 10 10 10 12 12 13 12 11 10 12 5 5 1 2 11 9 4 3 4 2 3 2 2 3 8 10 9 7 4 16 18
24 23 22 22 21 20 20 19 17 14 12 10 8 6 5 7 9 10 11 13 12 12 14 10 6 6 2 2 1 5 8 4 4 3 5 2 1 1 2 3 5 4 12 16 13 14 14
24 24 24 22 22 21 20 19 18 17 14 13 10 6 5 6 9 11 13 14 13 14 13 5 1 2 3 3 1 6 4 2 2 1 4 3 2 2 1 5 9 9 20 23 19 14 10
22 26 25 24 25 23 22 20 18 17 16 14 10 8 6 5 8 12 14 13 16 9 3 6 6 2 3 2 3 2 1 2 2 2 2 3 3 1 2 5 7 11 14 10 7 13 16
13 17 25 25 26 24 22 21 21 19 16 14 11 8 5 7 8 10 14 14 8 7 9 11 4 2 1 3 2 2 1 4 6 1 3 1 2 0 2 6 7 2 13 19 23 6 15
16 15 17 26 25 23 23 22 21 20 17 16 14 10 6 6 8 10 11 2 10 9 3 0 3 0 2 1 3 4 2 1 2 4 2 2 3 1 0 3 7 11 17 20 24 15 18
15 16 14 14 22 23 24 24 22 20 19 17 15 12 8 6 7 9 4 3 2 2 0 3 2 2 4 6 3 1 2 2 2 2 1 3 2 8 12 12 15 15 18 24 28 25 24
16 16 17 15 18 23 27 26 24 23 22 20 16 13 9 6 6 7 3 3 3 1 4 2 2 4 5 2 2 3 1 2 1 2 2 0 8 7 6 11 13 14 18 24 25 16 13
18 17 17 18 18 20 28 29 27 25 23 22 19 15 10 5 5 3 4 5 3 4 0 3 4 3 2 5 1 3 1 2 1 1 2 5 4 2 7 12 11 14 15 18 20 24 19
22 17 17 19 20 21 20 23 25 27 27 23 22 18 11 8 3 4 2 2 4 3 2 3 4 2 2 1 1 3 1 0 0 3 4 8 4 4 6 14 7 7 9 13 16 12 11
22 19 19 20 21 22 21 23 26 29 30 27 24 19 12 6 7 4 3 5 5 1 4 3 2 3 3 2 3 1 1 2 4 4 2 4 5 5 12 8 9 11 6 13 16 16 14
25 23 22 20 22 24 23 21 24 29 30 29 26 20 14 3 1 1 6 6 2 2 8 4 3 2 3 4 4 6 4 1 2 4 5 10 4 5 6 5 12 8 8 14 8 4 6
27 28 25 23 23 23 23 24 30 32 31 30 27 24 13 5 4 7 6 3 2 6 2 5 4 2 2 2 2 4 3 4 5 6 6 10 3 3 5 5 2 3 5 5 3 2 6
29 29 28 25 25 24 23 22 29 34 32 31 26 20 6 3 4 10 3 3 8 3 4 3 5 3 2 3 1 5 2 2 3 3 3 5 7 2 4 4 6 7 4 4 6 7 11
31 32 27 27 27 27 26 25 31 32 32 32 28 3 4 2 5 2 2 4 7 7 6 8 6 4 1 1 2 1 1 3 2 2 3 4 8 6 14 8 4 2 4 2 6 7 5
34 33 35 32 33 33 32 30 36 36 35 38 10 8 5 4 5 3 2 5 5 5 7 4 6 4 5 3 2 1 2 3 2 3 2 2 10 8 5 5 7 6 2 4 3 5 6
36 39 43 43 42 40 37 36 37 40 39 29 8 8 4 11 2 2 6 5 4 5 7 5 5 5 4 5 3 2 1 1 3 3 3 5 6 8 11 3 7 6 5 5 4 4 4
40 45 50 49 44 43 42 39 43 42 38 19 6 6 6 10 6 2 4 5 5 6 3 4 5 4 6 5 4 3 4 4 3 1 3 0 4 7 14 17 6 6 11 8 5 3 1
51 56 55 52 48 47 46 49 49 48 39 11 6 6 4 4 7 7 4 4 4 5 5 5 4 3 4 6 2 4 4 5 4 3 2 0 3 8 6 2 9 6 8 11 7 3 3
51 43 35 33 41 49 51 54 52 46 34 11 6 8 4 3 2 8 7 5 5 1 4 6 5 6 4 3 3 3 3 3 3 4 8 4 3 1 1 4 7 12 17 12 5 3 6
20 16 22 35 45 50 54 52 50 44 30 9 4 5 9 16 10 6 4 6 9 5 2 4 3 5 6 3 3 4 4 4 3 1 3 2 3 5 6 9 12 15 17 17 12 5 5
11 21 30 39 49 54 53 52 48 39 25 5 8 7 4 18 11 10 5 7 12 5 5 5 6 8 6 5 6 5 4 2 5 2 1 2 2 2 4 6 1 9 16 13 10 13 13
28 36 41 43 47 50 49 49 43 35 15 4 2 2 8 11 10 9 6 9 9 9 4 6 8 6 6 6 5 6 7 6 7 4 3 1 2 2 3 3 4 2 9 10 11 14 5
32 32 38 41 44 45 45 44 38 26 8 3 3 4 7 7 11 9 10 6 14 5 8 4 5 4 2 1 3 2 5 9 8 10 10 3 4 3 3 4 3 4 3 10 15 12 8
30 31 34 34 36 38 40 35 26 22 8 2 2 4 5 10 9 9 13 9 10 6 5 5 2 2 2 2 0 1 2 2 3 5 9 9 2 4 3 3 5 5 4 3 4 7 10
27 32 33 32 33 31 30 26 20 12 12 6 5 1 5 11 3 11 12 9 6 4 4 3 2 1 2 1 1 3 3 2 3 4 5 6 3 3 3 3 4 4 5 5 5 4 8
29 29 30 31 31 28 23 17 13 9 8 6 3 3 6 7 1 4 5 6 5 5 4 3 2 2 1 2 2 1 3 0 3 1 2 1 1 2 3 1 3 7 8 3 4 4 4
29 29 29 26 25 24 21 17 15 14 9 6 1 3 5 6 3 3 4 6 4 3 5 4 3 1 2 3 1 2 2 2 2 1 1 2 1 1 2 0 3 12 1 1 7 6 6
25 24 23 22 23 21 19 17 16 15 11 6 5 4 4 8 5 2 4 4 4 6 7 2 3 3 3 4 2 2 2 1 1 3 3 1 2 2 4 4 4 5 10 7 4 8 7
Wind_Direction
219 221 219 220 215 211 212 222 215 215 224 223 239 256 284 313 319 325 323 314 321 323 324 332 339 339 1 20 300 346 342 341 348 358 58 55 43 44 347 327 308 262 268 267 295 306 296
219 220 219 217 216 214 207 214 211 211 210 205 231 237 270 297 311 315 314 310 318 317 312 320 332 338 68 28 145 342 343 350 13 20 358 353 97 122 274 248 250 277 289 296 294 290 276
219 221 221 216 216 215 212 216 211 202 199 206 205 232 261 293 308 310 311 317 317 315 311 303 148 56 76 196 30 332 330 305 306 17 347 312 17 249 205 271 279 291 298 298 284 276 258
229 220 223 216 214 215 208 207 212 210 195 198 206 205 243 275 302 310 311 319 314 318 16 117 116 46 248 187 224 315 291 325 272 258 234 303 139 204 223 316 306 297 288 306 114 309 283
313 261 230 220 217 212 213 207 202 207 197 190 191 206 209 276 299 307 312 321 307 88 106 117 56 10 283 304 73 333 353 301 306 330 262 260 121 218 305 297 298 269 289 290 310 281 306
299 298 282 226 217 211 211 212 206 197 194 184 179 192 196 259 292 299 316 265 111 96 110 295 101 68 294 345 307 317 279 306 315 326 27 93 70 211 308 248 285 304 290 289 289 287 305
289 296 296 299 225 215 214 212 205 198 188 178 181 182 188 238 278 299 4 81 323 263 81 227 152 274 297 304 291 305 323 44 64 50 28 18 267 255 268 247 269 282 280 280 280 289 298
278 282 288 286 280 249 216 210 201 195 185 176 177 175 181 243 278 311 108 152 194 185 309 207 236 281 252 232 331 314 127 43 48 305 160 72 251 264 269 264 262 264 271 277 283 281 294
267 268 274 283 288 285 229 205 198 190 181 173 166 171 170 216 298 87 134 194 132 114 157 279 203 222 217 172 216 280 141 127 181 283 227 233 266 38 251 271 256 259 254 277 276 300 297
265 257 267 272 274 275 273 221 196 186 176 170 163 164 175 176 147 134 192 212 135 86 27 201 203 177 137 141 210 263 86 62 193 276 288 256 256 250 268 280 238 275 232 255 278 305 306
257 257 262 268 269 263 261 245 204 186 175 166 156 160 174 217 134 149 196 131 113 67 286 129 154 133 356 59 313 128 338 110 230 231 165 263 251 249 295 262 178 242 213 278 279 276 301
256 252 249 262 269 264 256 250 207 180 173 161 151 156 155 121 43 202 129 121 101 58 239 145 94 65 80 358 354 327 3 315 239 281 221 257 260 267 231 253 220 266 294 284 283 255 256
263 255 251 255 259 266 251 252 208 178 172 155 152 157 152 165 188 136 137 122 134 202 76 158 129 71 136 6 334 11 6 28 45 347 355 320 246 223 228 282 187 203 330 316 317 232 281
263 254 249 247 254 251 245 246 188 171 166 151 146 151 171 211 134 131 143 143 202 135 186 151 116 95 160 40 289 341 94 93 66 89 286 347 324 212 169 255 287 290 275 276 301 315 310
260 249 249 253 249 245 238 240 189 168 158 138 134 102 113 249 127 101 170 201 204 176 158 148 97 130 190 3 249 15 -0 165 187 131 22 330 263 267 292 267 202 82 223 247 256 243 259
264 253 252 249 246 237 230 225 178 164 152 139 133 136 160 140 134 103 229 229 177 160 130 112 151 148 154 203 238 -0 199 200 226 163 167 221 286 282 307 292 216 203 14 268 213 286 288
267 261 253 255 250 236 222 208 178 159 148 129 112 126 156 133 139 146 211 231 163 167 127 129 152 130 162 169 219 196 160 265 233 209 254 223 206 292 315 243 290 267 253 214 267 250 291
271 272 262 254 239 223 207 195 166 151 142 121 144 146 148 148 163 204 207 192 136 149 121 120 111 118 150 163 182 186 211 231 136 327 321 171 294 287 279 304 336 254 254 233 237 228 233
283 270 259 249 229 203 190 168 157 153 145 130 107 98 131 147 174 187 237 181 123 151 145 137 120 128 105 167 126 193 202 264 256 311 246 238 268 293 328 141 21 328 310 270 257 233 238
274 254 238 215 185 179 168 157 153 154 147 121 123 128 151 193 173 176 166 154 123 115 116 117 113 104 132 164 218 157 241 265 236 232 210 225 261 267 -0 351 337 338 346 356 189 77 88
227 215 183 166 163 162 153 151 150 150 152 113 125 176 160 180 195 183 135 141 144 149 123 120 98 157 163 147 160 215 221 295 295 257 232 151 251 208 200 114 59 11 6 33 56 84 78
161 155 157 161 149 146 147 146 151 140 144 80 131 154 134 152 163 145 137 173 162 136 141 170 143 165 169 167 186 191 195 201 258 323 345 170 252 256 275 197 61 23 9 22 48 82 96
92 111 120 126 134 137 141 143 148 136 121 113 154 52 118 148 151 150 178 159 165 130 37 140 147 142 171 216 209 225 215 225 243 269 296 276 269 248 252 116 95 17 6 17 57 41 23
58 94 112 123 132 137 141 143 139 141 133 116 158 117 95 146 159 169 143 136 145 122 125 125 113 131 146 339 265 227 244 241 234 239 222 272 297 245 266 153 119 128 63 90 74 42 57
92 79 96 110 120 126 130 134 146 157 164 125 110 124 105 134 145 129 132 122 100 94 94 125 116 113 128 70 132 200 139 146 152 211 200 218 288 290 279 66 104 118 28 346 2 64 27
102 113 114 111 113 120 136 134 141 156 142 88 52 49 122 124 205 135 117 132 123 113 103 104 78 60 95 113 153 166 157 127 154 155 165 161 228 237 293 226 199 77 328 294 292 72 23
105 105 108 112 117 124 134 130 116 137 99 105 115 -0 93 104 37 123 118 133 112 101 103 128 119 100 28 109 111 141 127 260 153 132 187 230 321 336 349 107 110 356 314 253 238 86 77
112 114 119 119 122 131 135 134 137 137 110 86 96 307 108 86 66 51 118 124 97 107 137 154 115 24 80 90 150 147 132 91 155 75 59 66 313 27 289 339 161 350 119 64 107 105 116
115 115 114 107 108 116 119 118 111 94 87 89 65 350 19 79 105 53 73 52 95 148 125 94 123 114 141 109 161 131 129 124 104 151 43 86 24 88 13 83 61 9 65 52 108 117 113